Date,TemperatureHighF,TemperatureAvgF,TemperatureLowF,DewpointHighF,DewpointAvgF,DewpointLowF,HumidityHigh,HumidityAvg,HumidityLow,PressureMaxIn,PressureMinIn,WindSpeedMaxMPH,WindSpeedAvgMPH,GustSpeedMaxMPH,PrecipitationSumIn
2013-11-1,81.9,75.0,65.9,71.8,68.9,62.3,95,82,69,29.90,29.74,6,2,11,0.00
2013-11-2,76.6,67.2,58.8,67.7,46.2,37.5,93,49,25,30.13,29.90,3,1,9,0.00
2013-11-3,75.2,64.5,51.2,58.8,52.7,42.9,88,67,50,30.09,29.92,5,1,10,0.00
2013-11-4,76.3,69.5,59.2,69.8,64.4,56.0,94,84,64,29.94,29.83,4,1,9,0.00
2013-11-5,81.5,75.1,67.5,74.0,71.1,65.7,97,88,76,29.90,29.81,9,3,16,0.00
2013-11-6,83.5,72.5,56.8,74.4,68.0,52.3,96,86,69,30.10,29.85,4,2,10,0.08
2013-11-7,65.8,57.2,54.1,52.2,45.9,40.6,85,66,41,30.23,30.09,6,1,7,0.00
2013-11-8,68.5,60.2,51.1,57.5,52.0,45.1,91,75,64,30.20,30.02,9,0,9,0.00
2013-11-9,75.3,65.4,56.1,66.3,61.3,54.5,96,87,71,30.03,29.96,13,0,13,0.00
2013-11-10,67.1,64.9,63.0,64.8,60.9,56.4,96,87,73,30.13,29.99,9,0,9,0.03
2013-11-11,75.8,67.8,61.7,65.7,60.9,54.0,95,79,63,30.10,30.01,12,0,12,0.00
2013-11-12,72.5,62.7,53.7,61.3,55.5,45.3,96,79,55,30.38,30.04,12,2,12,0.00
2013-11-13,57.2,49.6,42.5,47.0,37.5,31.1,79,64,39,30.42,30.27,8,1,8,0.00
2013-11-14,64.5,59.1,45.0,59.3,54.4,41.1,95,85,71,30.13,29.90,2,0,8,0.00
2013-11-15,75.1,64.3,53.0,65.6,60.6,51.8,97,88,69,29.90,29.78,5,1,7,0.00
2013-11-16,77.5,71.9,64.4,74.1,70.2,63.1,98,94,89,29.80,29.68,6,2,13,0.01
2013-11-17,80.7,74.2,70.8,74.1,71.7,69.8,97,92,80,29.80,29.68,6,3,12,0.00
2013-11-18,77.7,72.3,68.0,74.7,70.2,59.5,98,93,73,29.92,29.79,2,1,8,0.01
2013-11-19,71.8,67.4,65.2,64.9,61.9,59.1,91,83,73,29.92,29.83,3,1,8,0.00
2013-11-20,78.6,72.9,67.6,73.5,70.1,63.6,96,91,81,29.83,29.72,5,2,11,0.00
2013-11-21,81.8,76.1,72.2,76.4,73.5,71.0,97,92,82,29.91,29.77,8,3,14,0.00
2013-11-22,76.5,56.9,39.8,75.6,55.8,38.8,99,96,84,30.14,29.87,4,1,10,0.21
2013-11-23,46.5,43.0,39.0,43.9,40.8,38.0,97,92,86,30.20,30.10,2,1,7,0.01
2013-11-24,46.4,44.3,40.7,45.3,40.7,37.4,96,87,78,30.23,30.09,2,1,8,0.12
2013-11-25,44.4,41.6,39.6,43.1,39.7,37.3,96,93,86,30.10,29.84,2,1,8,0.38
2013-11-26,50.0,43.3,39.2,40.3,38.0,35.7,96,82,62,30.17,29.91,6,2,15,0.10
2013-11-27,53.5,41.7,34.8,36.1,31.9,27.6,88,71,38,30.29,30.16,3,0,8,0.00
2013-11-28,41.1,36.2,34.0,37.7,33.2,28.9,91,89,81,30.23,30.18,0,0,1,0.00
2013-11-29,65.2,59.1,51.1,57.6,54.3,50.0,96,84,75,30.26,30.17,4,1,10,0.00
2013-11-30,72.3,61.4,48.6,62.4,56.8,47.5,98,85,65,30.18,30.04,7,1,13,0.00